#timestamp,LO_Frequency,Hit,StdDev 
1686963615.4,286046996.9,N
1686963635.2,286046997.4,N
1686963655.0,286046995.0,Y
1686963655.9,286046995.0,P
1686963675.8,286046997.4,N
1686963695.6,286046997.8,N
1686963715.5,286046997.7,N
1686963735.3,286046997.7,N
1686963755.1,286046997.2,N
1686963775.9,286046997.8,N
1686963795.7,286046995.1,Y
1686963815.6,286046997.9,P
1686963835.4,286046997.3,P
1686963855.2,286046998.8,P
1686963875.1,286046999.4,N
1686963876.0,286046999.4,N
1686963895.8,286046998.9,N
1686963915.7,286046999.0,N
1686963935.5,286046998.6,N
1686963955.3,286047001.2,N
1686963975.2,286047000.9,N
1686963995.0,286047001.1,N
1686963995.9,286047001.1,N
1686964015.8,286047001.0,N
1686964035.6,286047001.1,N
1686964055.4,286046998.3,N
1686964075.3,286046998.7,N
1686964095.1,286046998.7,N
1686964115.9,286047000.6,N
1686964135.7,286046999.7,N
1686964155.5,286046999.9,N
1686964175.4,286047001.1,N
1686964195.2,286047000.4,N
1686964215.1,286047001.0,N
1686964216.0,286047001.0,N
1686964235.8,286047000.9,N
1686964255.6,286047000.8,N
1686964275.5,286046998.5,N
1686964295.3,286046998.5,N
1686964315.1,286047000.8,N
1686964335.9,286047000.4,N
1686964355.7,286047000.0,N
1686964375.6,286047000.1,N
1686964395.4,286046999.7,N
1686964415.3,286047002.0,N
1686964435.1,286047002.0,N
1686964436.0,286047002.0,N
1686964455.8,286047002.2,N
1686964475.7,286047002.2,N
1686964495.5,286047002.3,N
1686964515.3,286047002.6,N
1686964535.2,286047002.2,N
1686964555.0,286047002.0,N
1686964555.9,286047002.0,N
1686964575.8,286047002.1,N
1686964595.6,286047001.7,N
1686964615.4,286047004.4,Y
1686964635.3,286047002.1,P
1686964655.1,286047002.2,P
1686964675.9,286046999.8,N
1686964695.7,286047002.3,N
1686964715.5,286047002.8,N
1686964735.4,286047002.4,N
1686964755.2,286047002.4,N
1686964775.1,286047002.4,N
1686964776.0,286047002.4,N
1686964795.8,286047001.6,N
1686964815.6,286047001.5,N
1686964835.5,286047004.4,Y
1686964855.3,286047000.1,P
1686964875.2,286046999.9,N
1686964895.9,286046999.9,N
1686964915.7,286047000.1,N
1686964935.6,286047000.1,N
1686964955.4,286046999.8,N
1686964975.2,286047001.6,N
1686964995.1,286047002.0,N
1686964996.0,286047002.0,N
1686965015.8,286047002.7,N
1686965035.7,286047002.8,N
1686965055.5,286047002.7,N
1686965075.3,286047002.6,N
1686965095.2,286047001.9,N
1686965115.0,286047004.0,Y
1686965115.9,286047004.0,P
1686965135.8,286047002.6,N
1686965155.6,286046999.8,N
1686965175.4,286047002.2,N
1686965195.3,286047002.5,N
1686965215.1,286047002.6,N
1686965235.9,286046999.9,N
1686965255.7,286046999.9,N
1686965275.5,286047002.4,N
1686965295.4,286047002.5,N
1686965315.2,286047001.9,N
1686965335.0,286047001.8,N
1686965335.9,286047001.8,N
1686965355.8,286047004.4,Y
1686965375.6,286047000.7,P
1686965395.5,286047000.5,N
1686965415.3,286047000.6,N
1686965435.1,286047000.9,N
1686965455.9,286046998.1,Y
1686965475.7,286046998.1,P
1686965495.6,286047001.2,N
1686965515.4,286046998.1,N
1686965535.2,286047001.1,N
1686965555.1,286046998.5,N
1686965556.0,286046998.5,N
1686965575.8,286047001.2,N
1686965595.7,286046998.3,N
1686965615.5,286047000.9,N
1686965635.3,286047000.8,N
1686965655.2,286047000.5,N
1686965675.9,286047000.9,N
1686965695.7,286046999.8,N
1686965715.6,286047000.8,N
1686965735.4,286047000.6,N
1686965755.2,286047000.9,N
1686965775.1,286047001.0,N
1686965776.0,286047001.0,N
1686965795.8,286047002.8,N
1686965815.7,286047000.9,N
1686965835.5,286047000.3,N
1686965855.3,286047000.1,N
1686965875.2,286047000.5,N
1686965925.0,286047002.8,E
1686965935.9,286046998.3,N
1686965955.7,286046996.7,P
1686965975.5,286046997.0,P
1686965995.4,286046996.6,Y
1686966015.2,286047000.0,P
1686966035.1,286047000.3,N
1686966036.0,286047000.3,N
1686966055.8,286046999.9,N
1686966075.6,286047002.3,N
1686966095.5,286047002.7,N
1686966115.3,286047001.9,N
1686966165.2,286047004.4,E
1686966175.1,286047000.0,N
1686966176.0,286047000.0,P
1686966195.8,286046998.9,P
1686966215.7,286046999.3,N
1686966235.5,286046999.2,N
1686966255.3,286046999.6,N
1686966275.2,286046996.6,Y
1686966295.0,286046999.3,P
1686966295.9,286046999.3,P
1686966315.7,286046999.3,P
1686966335.6,286046999.4,Y
1686966355.4,286047000.6,P
1686966375.3,286047001.1,N
1686966395.1,286047001.1,N
1686966396.0,286047001.1,N
1686966415.8,286046998.6,N
1686966435.7,286046998.6,N
1686966455.5,286046998.1,N
1686966475.3,286047001.0,N
1686966495.2,286047000.7,N
1686966515.0,286046998.2,N
1686966515.9,286046998.2,N
1686966535.8,286046998.5,N
1686966555.6,286046998.3,N
1686966575.4,286046998.3,N
1686966595.3,286046998.7,N
1686966615.1,286046999.4,N
1686966635.9,286046998.8,N
1686966655.7,286046998.2,N
1686966675.5,286046998.4,N
1686966695.4,286047001.2,N
1686966715.2,286047001.2,N
1686966735.0,286046998.5,N
1686966735.9,286046998.5,N
1686966755.8,286046998.5,N
1686966775.6,286046998.2,N
1686966795.5,286046998.5,N
1686966815.3,286046998.5,N
1686966835.1,286046998.1,N
1686966855.9,286047000.8,N
1686966875.7,286047000.9,N
1686966895.5,286047000.9,N
1686966915.4,286047000.8,N
1686966935.2,286047000.9,N
1686966955.1,286047000.5,N
1686966956.0,286047000.5,N
1686966975.8,286047000.6,N
1686966995.6,286047000.6,N
1686967015.5,286047000.9,N
1686967035.3,286047001.0,N
1686967055.1,286046999.8,N
1686967075.9,286047000.6,N
1686967095.7,286047000.9,N
1686967115.6,286047001.1,N
1686967135.4,286047000.9,N
1686967155.2,286047001.1,N
1686967175.1,286046998.5,N
1686967176.0,286046998.5,N
1686967195.8,286047001.1,N
